{"data":{"norad_id":66067,"intl_designator":"2025-235K","name":"STARLINK-35401","alt_names":[],"object_type":"PAYLOAD","status":"ACTIVE","operator":null,"country":"US","launch_date":"2025-10-19","launch_site_code":"AFETR","launch_vehicle":null,"mission":null,"orbit_class":"UNKNOWN","rcs_meters":null,"size_class":null,"mass_kg":null,"dimensions":null,"purposes":["comms"],"wikipedia_slug":null,"has_3d_model":false,"image_url":null,"decayed_at":null,"tle_current":{"epoch":"2026-05-24T23:58:29.426880Z","epoch_age_seconds":89318,"freshness":"FRESH","line1":"1 66067U 25235K   26144.99895170  .00012269  00000+0  42572-3 0  9999","line2":"2 66067  53.1593 250.8980 0001387  73.3166 286.7986 15.30197555 34576","mean_motion":15.30197555,"eccentricity":0.0001387,"inclination_deg":53.1593,"raan_deg":250.898,"arg_perigee_deg":73.3166,"mean_anomaly_deg":286.7986,"bstar":0.00042572,"rev_number":3457,"period_min":94.105496071061,"perigee_km":474.27180881375,"apogee_km":476.17293070292,"semimajor_km":6853.3593697583,"source":"CELESTRAK","updated_at":"2026-05-25T13:38:21.021914Z"}}}